Weather Roundup
Issued by NWS Chicago, IL

Home | Current Version | Previous Version | Graphics & Text | Print | Product List | Glossary On
Versions: 1 2 3 4 5 6 7 8 9 10 11 12 13 14 15 16 17 18 19 20 21 22 23 24 25 26 27 28 29 30 31 32 33 34 35 36 37 38 39 40 41 42 43 44 45 46 47 48 49 50
000
NZUS59 KLOT 030521
HRRLOT

CHICAGO AREA WEATHER ROUNDUP
NATIONAL WEATHER SERVICE CHICAGO/ROMEOVILLE IL
1200 AM CDT FRI JUL 03 2015

NOTE: "FAIR" INDICATES FEW OR NO CLOUDS BELOW 12,000 FEET WITH NO
SIGNIFICANT WEATHER AND/OR OBSTRUCTIONS TO VISIBILITY.

* THESE STATIONS ARE NOT UNDER NWS QUALITY CONTROL. THEY ALSO MAY NOT
  REPORT WEATHER SUCH AS PRECIPITATION OR FOG.

ILZ005-006-012>014-019>023-030600-
NORTHEAST ILLINOIS

CITY           SKY/WX    TMP DP  RH WIND       PRES   REMARKS
OHARE          CLOUDY    57  48  72 N5        30.00S
MIDWAY         CLOUDY    62  51  67 N8        29.99S
AURORA         PTCLDY    58  49  72 NE9       29.99S
LANSING*       PTCLDY    59  54  81 CALM      29.99R
JOLIET*        PTCLDY    59  53  80 NE6       29.99S
WAUKEGAN       MOCLDY    54  48  80 CALM      30.00S
DUPAGE AIRPORT PTCLDY    56  49  77 NE7       29.99S
WHEELING       MOCLDY    56  47  71 N3        30.01F
KANKAKEE*      MOCLDY    59  57  92 NE8       29.97S
MORRIS*        PTCLDY    58  52  80 NE5       29.97R
LEWIS AIRPORT* PTCLDY    58  50  74 NE10      29.99S
NORTHERLY IS     N/A     60  51  72 N6          N/A
$$

WIZ051-052-058>065-066-070>072-030600-
SOUTHEAST WISCONSIN

CITY           SKY/WX    TMP DP  RH WIND       PRES   REMARKS
MILWAUKEE      MOCLDY    57  46  66 CALM      30.02R
KENOSHA*       MOCLDY    54  47  77 N3        30.01S
RACINE*        PTCLDY    56  46  69 N5        30.03S
BURLINGTON     MOCLDY    49  46  88 CALM      30.01S
WAUKESHA       PTCLDY    52  43  71 CALM      30.03S
WEST BEND      CLEAR     50  46  87 CALM      30.02F
$$

INZ001>003-010>013-019-020-030600-
NORTHWEST INDIANA

CITY           SKY/WX    TMP DP  RH WIND       PRES   REMARKS
GARY*          MOCLDY    61  58  91 N5        29.99R
MICHIGAN CITY* NOT AVBL
RENSSELAER*    NOT AVBL
VALPARAISO     MOCLDY    58  53  84 CALM      29.99R
$$

LMZ740>746-030600-
SOUTHERN LAKE MICHIGAN

STATION/POSITION TIME  SKY/WX   TEMP WIND        PRES    VSBY
                                AIR  DIR/SP/G
                 (UTC)          (F)  (DEG/KT/KT) (MB)    (MI)
HARRISON CRIB    0500            60  350/  8/  9   N/A
BURNHAM HARBOR   0500            60  360/  6/ 10   N/A
CALUMET HARBOR   0400            60  350/  5/  7   N/A
BURNS HARBOR     0400            62   70/ 10/ 11 1015.9F
MICHIGAN CITY    0500            59   30/ 10/ 11   N/A
$$

ABBREVIATIONS USED IN REMARKS
   TC - TEMPERATURE IN CELSIUS
  WCI - WIND CHILL INDEX
   HX - HEAT INDEX
  VSB - VISIBILITY
$$


USA.gov is the U.S. government's official web portal to all federal, state and local government web resources and services.